Hourly Weather Roundup
Issued by NWS Central Illinois

Home | Current Version | Previous Version | Text Only | Print | Product List | Glossary On
Versions: 1 2 3 4 5 6 7 8 9 10 11 12 13 14 15 16 17 18 19 20 21 22 23 24 25 26 27 28 29 30 31 32 33 34 35 36 37 38 39 40 41 42 43 44 45 46 47 48 49 50
000
NZUS43 KILX 010810
HWRILX

AREA WEATHER ROUNDUP
NATIONAL WEATHER SERVICE, LINCOLN IL
300 AM CDT WED JUL 01 2015


CITY           SKY/WX    TMP DP  RH WIND       PRES   REMARKS
BLOOMINGTON    CLOUDY    64  63  97 CALM      29.92R
CHAMPAIGN      CLOUDY    64  62  93 E5        29.91S FOG
DANVILLE       PTCLDY    60  60  99 CALM      29.89R FOG
DECATUR        MOCLDY    65  63  93 CALM      29.90S
EFFINGHAM      PTCLDY    67  65  91 CALM      29.91S FOG
FLORA          MOCLDY    68  67  95 CALM      29.91R
GALESBURG      CLOUDY    66  64  92 CALM      29.91S
JACKSONVILLE   CLOUDY    72  69  93 CALM      29.90S
LACON          MOCLDY    64  61  91 E5        29.90R
LAWRENCEVILLE  MOCLDY    68  67  96 CALM      29.90R FOG
LITCHFIELD     CLOUDY    67  65  94 CALM      29.91S FOG
$$


CITY           SKY/WX    TMP DP  RH WIND       PRES   REMARKS
LINCOLN        CLOUDY    68  64  86 CALM      29.91S
MACOMB         CLOUDY    67  66  97 NE3       29.92S
MATTOON          N/A     65  64  97 CALM      29.89F FOG
MT CARMEL AP   MOCLDY    70  64  83 CALM      29.89S FOG
OLNEY-NOBLE AP MOCLDY    68  66  94 CALM      29.90S FOG
PARIS          PTCLDY    62  62  99 CALM      29.90S FOG
PEORIA         CLOUDY    69  64  84 CALM      29.90S
PONTIAC        MOCLDY    61  60  96 E6        29.92R
RANTOUL        MOCLDY    65  63  93 NE5       29.91S FOG
ROBINSON       PTCLDY    65  64  97 CALM      29.90S FOG
SPRINGFIELD    CLOUDY    70  67  90 CALM      29.90S FOG
TAYLORVILLE    CLOUDY    64  64 100 CALM      29.91R FOG
$$

...REGIONAL REPORTS...


CITY           SKY/WX    TMP DP  RH WIND       PRES   REMARKS
CHICAGO O`HARE CLOUDY    56  51  84 NE6       29.92F
KANKAKEE       PTCLDY    58  57  97 CALM      29.92S FOG
MOLINE         CLOUDY    68  60  75 NE3       29.90S
MOUNT STERLING NOT AVBL
MOUNT VERNON     N/A     66  61  82 CALM      29.91S VSB 3/4
PITTSFIELD     CLOUDY    72  68  86 CALM      29.91F
QUINCY         CLOUDY    70  68  93 CALM      29.89F FOG
ROCKFORD       CLOUDY    58  54  86 SE3       29.95R
$$


CITY           SKY/WX    TMP DP  RH WIND       PRES   REMARKS
BURLINGTON     CLOUDY    69  65  86 NE5       29.90S
CEDAR RAPIDS   CLOUDY    65  60  84 NE9       29.93R
DES MOINES     MOCLDY    70  63  78 E6        29.90F
KIRKSVILLE     LGT RAIN  68  66  93 SW6       29.91F FOG
OTTUMWA        CLOUDY    67  64  90 NE9       29.89F
ST LOUIS       CLOUDY    76  69  79 W5        29.92R
$$


CITY           SKY/WX    TMP DP  RH WIND       PRES   REMARKS
TERRE HAUTE    FOG       63  62  97 CALM      29.89S VSB 1
EVANSVILLE     MOCLDY    72  68  87 W6        29.90R
INDIANAPOLIS   PTCLDY    64  61  90 CALM      29.89R
LAFAYETTE      CLEAR     60  57  89 N5        29.91R
MADISON        CLOUDY    61  57  87 CALM      29.93R
MILWAUKEE      MOCLDY    53  49  86 CALM      29.94R
$$





USA.gov is the U.S. government's official web portal to all federal, state and local government web resources and services.